#timestamp,LO_Frequency,Hit,StdDev 
1578184795.5,286047025.9,P
1578184815.4,286047026.6,P
1578184835.2,286047026.2,P
1578184855.1,286047023.8,Y
1578184856.0,286047023.8,P
1578184875.8,286046999.5,N
1578184895.6,286046998.8,N
1578184915.5,286046998.3,N
1578184935.3,286046998.8,N
1578184955.1,286047000.7,N
1578184975.9,286047000.2,N
1578184995.7,286047002.7,N
1578185015.6,286047002.6,N
1578185035.4,286047002.5,N
1578185055.2,286047001.3,N
1578185075.1,286046999.7,N
1578185076.0,286046999.7,N
1578185095.8,286047001.6,N
1578185115.6,286047002.6,N
1578185135.5,286047001.7,N
1578185155.3,286047004.3,N
1578185175.2,286047003.1,N
1578185195.9,286047006.0,N
1578185215.7,286047005.8,N
1578185235.6,286047003.2,N
1578185255.4,286047003.6,N
1578185275.2,286047005.4,N
1578185295.1,286047005.4,N
1578185296.0,286047005.4,N
1578185315.8,286047005.9,N
1578185335.7,286047006.9,N
1578185355.5,286047008.9,N
1578185375.3,286047008.3,N
1578185395.2,286047008.0,N
1578185415.9,286047008.7,N
1578185435.7,286047008.4,N
1578185455.6,286047010.5,Y
1578185475.4,286047004.7,P
1578185495.3,286047004.9,P
1578185515.1,286047002.9,P
1578185516.0,286047002.9,Y
1578185535.8,286047001.0,P
1578185555.7,286046999.5,N
1578185575.5,286046998.3,N
1578185595.3,286046996.6,N
1578185615.2,286046998.1,N
1578185635.0,286047001.7,N
1578185635.9,286047001.7,N
1578185655.8,286047004.0,N
1578185675.6,286047001.9,N
1578185695.4,286047002.4,N
1578185715.3,286046999.8,N
1578185735.1,286047002.5,N
1578185755.8,286047000.3,N
1578185775.7,286047000.8,N
1578185795.5,286047002.6,N
1578185815.4,286047002.6,N
1578185835.2,286047001.0,N
1578185855.0,286047000.6,N
1578185855.9,286047000.6,N
1578185875.8,286047000.5,N
1578185895.6,286046998.1,N
1578185945.5,286046999.9,E
1578185955.4,286047002.1,N
1578185975.2,286047001.3,P
1578185995.1,286047002.9,P
1578185996.0,286047002.9,Y
